When you browse on this site, cookies collect data to enhance your experience and personalize the content and advertising you see.
Visit our Privacy Policy to learn more. By continuing to use the site, you agree to this use of cookies and data.
  • In Österreich
  • Länderverzeichnis
  • Für 7 Tage
  • Wassertemperatur
  • Wetterkarte
  • News
  • Widgets
  • user-avatar
    Anmelden

    Stündliche Wetter Belize

    Heute, 20 Februar, Donnerstag

    Zeit Temperatur Niederschläge Wind Luftdruck Luftfeuchtigkeit
    00:00 +24°C° 0 mm 7 m/S 762 mmHg 99%
    01:00 +24°C° 0.2 mm 6 m/S 761 mmHg 99%
    02:00 +24°C° 0.2 mm 6 m/S 761 mmHg 99%
    03:00 +25°C° 0.2 mm 5 m/S 760 mmHg 99%
    04:00 +25°C° 0.3 mm 5 m/S 760 mmHg 99%
    05:00 +25°C° 0.3 mm 5 m/S 761 mmHg 99%
    06:00 +25°C° 0.3 mm 5 m/S 761 mmHg 99%
    07:00 +26°C° 0.2 mm 5 m/S 761 mmHg 96%
    08:00 +27°C° 0.2 mm 5 m/S 762 mmHg 94%
    09:00 +28°C° 0.2 mm 5 m/S 762 mmHg 91%
    10:00 +29°C° 0.1 mm 5 m/S 762 mmHg 83%
    11:00 +30°C° 0.1 mm 5 m/S 762 mmHg 75%
    12:00 +32°C° 0.1 mm 4 m/S 762 mmHg 66%
    13:00 +33°C° 0.1 mm 4 m/S 761 mmHg 64%
    14:00 +33°C° 0.1 mm 4 m/S 761 mmHg 61%
    15:00 +33°C° 0.1 mm 5 m/S 760 mmHg 59%
    16:00 +30°C° 0 mm 4 m/S 761 mmHg 67%
    17:00 +28°C° 0 mm 4 m/S 761 mmHg 75%
    18:00 +27°C° 0 mm 4 m/S 761 mmHg 83%
    19:00 +26°C° 0 mm 4 m/S 762 mmHg 88%
    20:00 +25°C° 0 mm 4 m/S 762 mmHg 93%
    21:00 +24°C° 0 mm 3 m/S 763 mmHg 98%
    22:00 +24°C° 0 mm 3 m/S 763 mmHg 98%
    23:00 +22°C° 0 mm 3 m/S 763 mmHg 98%

    Morgen, 21 Februar, Freitag

    Zeit Temperatur Niederschläge Wind Luftdruck Luftfeuchtigkeit
    00:00 +22°C° 0 mm 3 m/S 763 mmHg 98%
    07:00 +24°C° 0.1 mm 3 m/S 763 mmHg 92%
    08:00 +26°C° 0.1 mm 4 m/S 764 mmHg 84%
    09:00 +28°C° 0.1 mm 4 m/S 764 mmHg 77%
    10:00 +30°C° 0.1 mm 4 m/S 764 mmHg 69%
    11:00 +32°C° 0.1 mm 5 m/S 764 mmHg 60%
    12:00 +34°C° 0.1 mm 5 m/S 764 mmHg 51%
    13:00 +34°C° 0 mm 5 m/S 763 mmHg 48%
    14:00 +34°C° 0 mm 6 m/S 762 mmHg 44%
    15:00 +35°C° 0 mm 6 m/S 761 mmHg 40%
    16:00 +32°C° 0 mm 6 m/S 762 mmHg 55%
    17:00 +28°C° 0 mm 6 m/S 762 mmHg 69%
    18:00 +26°C° 0 mm 6 m/S 762 mmHg 83%
    19:00 +25°C° 0 mm 5 m/S 763 mmHg 86%
    20:00 +25°C° 0 mm 5 m/S 763 mmHg 90%
    21:00 +23°C° 0 mm 5 m/S 764 mmHg 93%
    22:00 +23°C° 0.7 mm 5 m/S 764 mmHg 94%
    23:00 +23°C° 0.7 mm 6 m/S 764 mmHg 95%

    übermorgen, 22 Februar, Samstag

    Zeit Temperatur Niederschläge Wind Luftdruck Luftfeuchtigkeit
    00:00 +22°C° 0.7 mm 6 m/S 764 mmHg 97%
    01:00 +22°C° 1.3 mm 7 m/S 764 mmHg 97%
    02:00 +22°C° 1.3 mm 7 m/S 763 mmHg 98%
    03:00 +22°C° 1.3 mm 7 m/S 763 mmHg 98%
    04:00 +22°C° 0.4 mm 7 m/S 764 mmHg 98%
    05:00 +21°C° 0.4 mm 7 m/S 764 mmHg 98%
    06:00 +21°C° 0.4 mm 7 m/S 764 mmHg 97%
    07:00 +22°C° 0 mm 7 m/S 765 mmHg 91%
    08:00 +23°C° 0 mm 6 m/S 765 mmHg 84%
    09:00 +24°C° 0 mm 6 m/S 766 mmHg 77%
    10:00 +27°C° 0 mm 6 m/S 765 mmHg 68%
    11:00 +29°C° 0 mm 5 m/S 765 mmHg 59%
    12:00 +32°C° 0 mm 5 m/S 765 mmHg 51%
    13:00 +32°C° 0 mm 5 m/S 764 mmHg 52%
    14:00 +30°C° 0 mm 5 m/S 763 mmHg 53%
    15:00 +30°C° 0 mm 5 m/S 762 mmHg 54%
    16:00 +28°C° 0 mm 6 m/S 762 mmHg 64%
    17:00 +26°C° 0 mm 6 m/S 763 mmHg 74%
    18:00 +23°C° 0 mm 6 m/S 763 mmHg 84%
    19:00 +23°C° 0 mm 6 m/S 763 mmHg 87%
    20:00 +22°C° 0 mm 6 m/S 764 mmHg 90%
    21:00 +22°C° 0 mm 6 m/S 764 mmHg 93%
    22:00 +21°C° 0.1 mm 6 m/S 764 mmHg 94%
    23:00 +21°C° 0.1 mm 6 m/S 764 mmHg 95%

    23 Februar, Sonntag

    Zeit Temperatur Niederschläge Wind Luftdruck Luftfeuchtigkeit
    00:00 +21°C° 0.1 mm 5 m/S 764 mmHg 96%
    01:00 +20°C° 0.1 mm 5 m/S 764 mmHg 94%
    02:00 +20°C° 0.1 mm 5 m/S 763 mmHg 93%
    03:00 +19°C° 0.1 mm 6 m/S 763 mmHg 91%
    04:00 +19°C° 0 mm 5 m/S 763 mmHg 91%
    05:00 +17°C° 0 mm 5 m/S 764 mmHg 91%
    06:00 +17°C° 0 mm 4 m/S 764 mmHg 90%
    07:00 +19°C° 0 mm 4 m/S 764 mmHg 80%
    08:00 +21°C° 0 mm 4 m/S 765 mmHg 70%
    09:00 +24°C° 0 mm 3 m/S 765 mmHg 61%
    10:00 +26°C° 0 mm 3 m/S 764 mmHg 55%
    11:00 +28°C° 0 mm 3 m/S 764 mmHg 49%
    12:00 +31°C° 0 mm 3 m/S 763 mmHg 44%
    13:00 +31°C° 0 mm 3 m/S 762 mmHg 43%
    14:00 +32°C° 0 mm 4 m/S 761 mmHg 43%
    15:00 +32°C° 0 mm 4 m/S 761 mmHg 42%
    16:00 +28°C° 0 mm 4 m/S 761 mmHg 53%
    17:00 +26°C° 0 mm 4 m/S 761 mmHg 64%
    18:00 +22°C° 0 mm 4 m/S 761 mmHg 74%
    19:00 +21°C° 0 mm 4 m/S 761 mmHg 79%
    20:00 +20°C° 0 mm 4 m/S 761 mmHg 83%
    21:00 +19°C° 0 mm 3 m/S 762 mmHg 88%
    22:00 +19°C° 0 mm 3 m/S 761 mmHg 89%
    23:00 +19°C° 0 mm 3 m/S 761 mmHg 90%

    24 Februar, Montag

    Zeit Temperatur Niederschläge Wind Luftdruck Luftfeuchtigkeit
    00:00 +19°C° 0 mm 2 m/S 761 mmHg 91%
    01:00 +18°C° 0 mm 2 m/S 760 mmHg 92%
    02:00 +18°C° 0 mm 2 m/S 760 mmHg 92%
    03:00 +19°C° 0 mm 1 m/S 759 mmHg 93%
    04:00 +19°C° 0 mm 1 m/S 760 mmHg 93%
    05:00 +18°C° 0 mm 2 m/S 760 mmHg 94%
    06:00 +18°C° 0 mm 2 m/S 760 mmHg 95%
    07:00 +21°C° 0 mm 2 m/S 760 mmHg 83%
    08:00 +24°C° 0 mm 2 m/S 761 mmHg 70%
    09:00 +27°C° 0 mm 2 m/S 761 mmHg 58%
    10:00 +29°C° 0 mm 2 m/S 761 mmHg 54%
    11:00 +30°C° 0 mm 2 m/S 760 mmHg 49%
    12:00 +32°C° 0 mm 2 m/S 759 mmHg 45%
    13:00 +33°C° 0 mm 3 m/S 759 mmHg 46%
    14:00 +31°C° 0 mm 3 m/S 758 mmHg 47%
    15:00 +31°C° 0 mm 3 m/S 757 mmHg 48%
    16:00 +29°C° 0 mm 3 m/S 757 mmHg 57%
    17:00 +26°C° 0 mm 4 m/S 757 mmHg 67%
    18:00 +23°C° 0 mm 4 m/S 757 mmHg 76%
    19:00 +22°C° 0 mm 4 m/S 757 mmHg 81%
    20:00 +21°C° 0 mm 5 m/S 758 mmHg 86%
    21:00 +20°C° 0 mm 5 m/S 758 mmHg 92%
    22:00 +20°C° 0 mm 5 m/S 758 mmHg 94%
    23:00 +20°C° 0 mm 5 m/S 758 mmHg 96%

    25 Februar, Dienstag

    Zeit Temperatur Niederschläge Wind Luftdruck Luftfeuchtigkeit
    00:00 +20°C° 0 mm 5 m/S 758 mmHg 98%
    01:00 +20°C° 0 mm 5 m/S 757 mmHg 98%
    02:00 +20°C° 0 mm 4 m/S 757 mmHg 98%
    03:00 +20°C° 0 mm 4 m/S 757 mmHg 98%
    04:00 +20°C° 0.1 mm 4 m/S 757 mmHg 98%
    05:00 +20°C° 0.1 mm 4 m/S 757 mmHg 98%
    06:00 +20°C° 0.1 mm 4 m/S 757 mmHg 98%
    07:00 +23°C° 0 mm 4 m/S 758 mmHg 87%
    08:00 +27°C° 0 mm 5 m/S 758 mmHg 77%
    09:00 +30°C° 0 mm 5 m/S 759 mmHg 66%
    10:00 +30°C° 0 mm 4 m/S 759 mmHg 65%
    11:00 +32°C° 0 mm 4 m/S 758 mmHg 63%
    12:00 +32°C° 0 mm 4 m/S 758 mmHg 62%
    13:00 +31°C° 0 mm 3 m/S 757 mmHg 60%
    14:00 +33°C° 0 mm 3 m/S 757 mmHg 59%
    15:00 +33°C° 0 mm 3 m/S 756 mmHg 58%
    16:00 +30°C° 0 mm 3 m/S 756 mmHg 66%
    17:00 +28°C° 0 mm 3 m/S 756 mmHg 74%
    18:00 +27°C° 0 mm 3 m/S 757 mmHg 82%
    19:00 +26°C° 0 mm 4 m/S 757 mmHg 88%
    20:00 +25°C° 0 mm 4 m/S 758 mmHg 93%
    21:00 +23°C° 0 mm 5 m/S 758 mmHg 98%
    22:00 +23°C° 0 mm 4 m/S 758 mmHg 99%
    23:00 +22°C° 0 mm 4 m/S 758 mmHg 99%
    Mehr zeigen